Theta_e
357 356 357 359 360 359 358 358 357 357 358 358 359 357 350 348 349 347 346 347 348 349 350 352 350 349 349 348 346 347 348 350 352 353 354 355 354 354 355 354 352 351 350 349 350 351 352 352 352 352 353 353 352 352 352 353 352 352 352 350 349 349 349 350 351 351 350 348 347 346 347 348 348 348 349 350 351 352 352 351 351 351 350 351 351
359 357 355 357 359 360 359 358 358 356 357 357 359 360 354 350 349 347 345 347 349 349 349 351 350 349 349 348 347 347 348 351 352 353 355 355 355 356 355 351 349 348 348 350 352 352 353 353 352 351 353 353 352 352 352 352 351 351 351 350 349 349 349 350 351 351 349 348 347 349 349 349 349 349 350 351 351 351 352 351 351 351 351 351 351
362 360 356 355 358 358 358 358 357 356 357 358 360 362 359 354 354 353 351 353 355 354 351 350 350 350 350 349 348 348 348 349 350 352 354 355 355 355 353 350 348 346 349 353 355 355 355 354 353 352 352 352 352 352 352 350 350 350 350 350 350 349 349 349 350 351 350 349 349 352 353 352 352 350 349 350 350 351 351 351 351 350 351 351 352
361 360 359 356 356 356 357 358 358 357 358 359 361 364 364 361 359 359 360 359 359 358 355 352 351 351 351 350 349 350 350 351 351 352 352 352 354 354 351 349 348 348 353 356 356 356 356 355 354 353 352 351 351 352 352 351 350 349 349 349 349 348 347 348 349 350 351 351 351 353 352 354 358 352 348 350 349 351 351 350 351 351 350 350 350
361 362 360 357 356 356 356 357 358 357 358 359 360 363 365 364 364 362 360 360 361 359 358 356 355 354 354 353 352 353 354 354 354 354 353 352 354 354 352 351 351 353 356 357 356 356 355 354 354 353 352 350 350 352 352 351 351 349 348 348 348 347 345 346 348 348 350 351 350 353 351 354 359 353 350 352 349 350 351 351 351 351 351 350 349
360 361 359 357 356 356 356 356 356 357 357 358 358 361 363 365 367 360 353 356 361 360 359 359 356 354 354 356 356 356 357 356 356 355 355 355 355 354 353 355 355 356 358 357 356 356 354 353 352 351 351 350 350 351 351 351 351 350 349 348 347 346 345 346 345 345 350 351 349 351 350 350 352 350 353 356 351 349 350 351 352 352 352 352 350
359 361 359 358 356 356 356 355 356 356 356 357 357 359 361 363 364 358 354 358 361 360 358 355 351 350 351 355 357 357 357 357 356 355 356 355 354 353 354 356 356 357 358 357 356 354 352 351 351 350 350 350 350 350 350 350 349 348 347 347 345 345 346 344 341 341 345 347 348 350 349 348 348 348 352 354 353 353 350 349 351 352 352 352 351
359 361 360 359 356 355 355 355 355 355 356 356 357 358 360 362 359 356 357 359 359 357 354 350 348 349 350 352 355 356 356 355 355 354 354 354 354 355 355 355 356 357 357 355 354 353 352 350 350 349 349 350 349 348 347 345 345 345 345 345 344 344 343 340 338 338 339 340 343 346 347 347 347 347 348 348 351 357 357 352 349 350 350 351 351
357 359 360 358 355 355 355 355 355 355 355 355 356 357 358 359 356 353 354 355 356 356 354 351 349 349 349 349 352 353 353 352 353 353 352 353 354 354 356 356 355 355 354 354 354 354 352 349 348 348 349 348 346 345 342 341 343 344 343 343 344 343 340 338 338 337 337 337 338 340 340 343 347 348 347 347 348 352 359 360 351 349 350 349 350
355 356 357 356 355 355 355 356 355 354 354 353 355 356 355 356 354 353 354 355 355 354 354 353 352 350 348 348 349 350 351 352 353 352 352 354 353 352 355 355 353 353 354 355 356 354 349 348 348 348 348 346 345 344 341 339 341 342 341 341 341 341 338 338 338 336 336 337 337 338 336 339 347 349 347 347 348 348 353 356 350 349 352 349 347
358 357 356 355 355 355 355 357 356 354 354 354 354 355 355 356 355 356 356 355 355 353 352 352 351 350 348 348 348 349 351 353 353 353 354 355 352 352 354 353 352 354 355 356 355 350 347 348 348 348 348 347 345 343 340 339 339 339 339 339 339 338 337 337 337 337 338 338 338 339 337 336 340 343 342 345 349 349 351 353 349 347 350 348 342
359 360 358 356 355 354 355 356 356 355 355 355 355 355 356 356 356 356 355 354 354 352 352 351 350 349 348 348 348 349 351 351 352 354 354 354 353 354 354 352 352 353 355 355 351 347 348 349 348 347 347 345 343 341 340 340 339 339 340 340 340 339 339 338 337 339 339 339 339 339 339 337 335 336 336 338 345 347 350 353 349 343 345 344 338
359 359 358 357 355 353 352 354 355 355 355 357 357 357 357 357 356 355 354 354 353 352 352 351 349 348 348 349 348 348 350 350 351 354 354 354 354 353 353 352 351 352 354 353 350 348 349 348 346 345 343 340 340 340 341 342 339 339 340 340 340 340 340 340 338 340 340 339 340 339 339 339 337 336 335 335 337 339 343 348 345 338 339 339 336
358 358 357 357 355 352 350 352 355 355 357 358 358 357 356 356 355 354 354 354 353 352 352 352 351 350 349 351 349 349 351 352 353 354 354 354 354 352 352 352 350 351 352 350 350 350 349 347 345 343 340 339 340 340 342 342 340 339 340 339 340 341 341 341 340 340 339 339 339 339 339 339 338 337 336 335 335 335 337 340 339 337 337 336 336
358 357 357 356 354 352 351 353 356 357 357 357 356 356 356 356 355 354 353 354 354 353 353 352 352 351 351 352 351 352 353 353 353 354 354 352 351 350 349 350 348 348 349 348 350 350 347 345 344 343 341 339 340 341 341 342 340 339 339 339 340 341 341 341 339 339 339 339 339 339 339 338 338 338 337 336 335 334 335 335 336 338 340 343 345
358 358 359 357 354 353 354 355 357 358 357 357 357 356 356 355 354 353 353 353 353 353 354 354 353 353 353 353 353 354 353 352 352 352 351 349 348 348 348 349 349 348 347 348 350 351 347 346 345 345 344 342 341 341 340 340 339 340 340 339 340 340 340 339 338 338 339 339 339 339 338 338 338 338 337 336 334 334 334 333 333 335 337 344 348
360 361 361 358 355 355 356 357 358 358 357 357 356 355 355 354 354 354 354 353 354 354 353 354 354 353 353 352 353 353 353 353 351 348 348 349 348 348 348 347 348 349 349 346 347 349 348 347 346 345 344 342 341 340 339 339 340 340 340 340 339 339 341 340 338 339 339 339 339 338 338 338 338 337 335 334 334 333 333 332 332 332 333 337 340
361 362 360 357 356 356 357 357 357 358 358 357 356 355 354 354 355 355 354 355 354 354 353 353 353 353 353 352 353 353 353 351 349 349 350 348 345 343 343 343 343 346 346 343 343 344 344 344 343 342 341 340 340 340 340 340 340 340 339 339 339 339 341 340 338 338 338 338 338 338 338 337 336 335 334 333 333 332 333 332 333 333 333 334 335
363 363 362 359 355 355 356 356 357 358 357 357 356 354 354 355 356 355 354 355 354 353 354 353 353 353 353 353 352 351 351 349 349 350 347 342 339 339 340 340 340 340 340 340 340 341 341 341 341 340 339 338 339 340 340 340 339 339 339 339 339 338 338 336 335 335 335 335 335 335 335 334 334 334 333 333 332 332 333 333 333 333 333 334 333
364 363 364 360 354 354 355 355 358 358 357 358 356 355 355 355 356 355 354 354 353 353 354 353 353 353 352 351 351 350 350 348 347 346 342 339 339 340 339 338 338 337 338 338 340 340 340 340 341 340 339 339 340 340 339 339 339 338 338 337 336 336 336 334 332 334 334 333 333 333 333 333 333 333 333 332 332 333 333 333 333 333 332 333 333
363 363 364 360 354 354 355 356 358 358 357 358 357 355 355 355 356 355 354 353 353 354 355 354 353 352 350 349 350 349 348 345 343 342 340 340 340 340 340 340 339 338 338 338 340 341 341 340 340 340 340 340 340 339 339 339 338 337 335 332 327 327 332 334 332 332 333 332 332 332 333 332 332 332 332 332 332 333 333 332 332 332 332 332 332
361 362 361 357 353 353 355 357 358 358 358 358 357 356 356 356 357 356 354 354 355 355 355 355 353 351 350 349 347 346 344 342 341 341 340 340 341 341 341 342 342 341 341 341 341 341 341 341 340 340 340 340 339 339 339 338 335 332 329 328 323 321 325 331 332 332 332 332 332 332 332 332 332 331 331 332 332 332 331 331 330 330 330 331 331
360 360 358 353 352 354 355 357 356 357 359 358 358 358 357 358 357 356 356 355 356 355 354 354 352 349 348 347 344 343 342 341 341 341 341 341 342 342 342 342 342 343 343 343 343 343 342 341 340 340 340 339 338 338 337 336 333 330 327 327 325 322 320 323 328 331 331 331 331 332 332 331 330 330 330 330 331 331 329 329 329 330 330 330 331
361 359 355 352 353 354 354 355 355 356 358 358 358 358 358 358 357 355 356 356 355 355 354 353 350 348 346 344 342 342 342 342 341 341 343 343 343 343 343 343 344 344 344 343 343 344 343 341 341 340 340 339 337 337 337 335 332 329 328 327 327 325 322 321 325 329 330 330 331 332 331 330 329 329 330 330 330 330 329 329 329 330 330 330 330
362 359 357 355 355 355 353 353 354 354 357 358 358 358 357 356 356 355 356 356 355 354 354 352 350 347 345 342 342 343 342 341 342 342 342 343 343 344 344 345 345 345 345 344 344 343 342 341 341 340 339 338 336 336 336 333 330 329 330 329 326 324 324 324 327 328 328 329 330 330 330 330 329 329 329 330 330 330 330 330 330 330 329 329 329
361 358 359 360 357 354 354 355 355 355 357 358 357 357 357 356 356 356 356 355 354 353 352 350 347 345 343 341 342 344 344 342 343 343 343 344 344 344 345 345 345 345 345 345 343 342 341 341 340 338 337 336 336 335 333 331 330 330 329 326 321 319 321 324 326 326 327 328 329 329 329 330 330 329 328 329 329 330 331 330 329 329 328 327 328
360 359 361 362 358 352 349 350 350 350 353 357 356 356 356 356 356 356 355 354 353 351 349 346 344 343 340 342 345 346 345 344 344 344 344 344 344 345 345 345 344 344 345 345 343 341 340 340 338 335 334 335 335 333 331 330 330 328 324 320 317 318 320 323 325 326 327 328 328 329 330 329 329 329 328 328 329 330 330 328 328 328 327 327 328
359 361 362 360 356 352 345 344 345 345 348 354 356 355 356 356 356 355 353 352 351 349 345 343 343 341 340 343 346 346 345 345 345 345 345 346 346 346 346 344 344 343 344 345 343 340 339 338 335 333 333 334 333 331 330 330 328 324 320 316 317 322 324 324 326 327 327 328 328 328 328 328 329 329 329 330 330 329 329 329 329 329 328 329 329
358 358 359 357 359 357 346 342 345 345 347 353 355 355 356 355 354 353 352 351 349 346 344 343 343 341 341 346 347 347 347 346 346 347 347 348 347 346 345 344 344 344 345 345 342 339 338 337 334 333 333 333 333 332 331 330 326 321 317 314 314 320 325 325 324 325 326 326 326 325 324 325 327 328 328 329 329 329 331 332 332 331 330 330 330
356 355 356 356 357 353 344 343 345 344 347 353 355 356 355 354 353 352 351 350 346 345 344 344 344 343 345 348 349 348 349 348 348 348 348 347 346 346 346 345 345 344 345 346 344 340 338 336 335 335 334 333 334 333 331 329 327 321 317 315 312 312 319 322 320 321 321 321 320 320 320 321 322 323 326 328 329 330 332 331 330 331 331 331 331
356 355 355 353 351 347 343 345 346 344 348 353 354 355 354 353 353 352 351 348 346 345 345 345 345 346 348 349 349 349 349 349 350 349 348 348 348 347 346 346 346 345 345 345 343 340 338 338 338 336 334 333 333 330 326 326 326 323 320 319 313 307 311 316 316 317 317 318 318 318 317 318 319 322 325 327 327 328 328 327 326 327 328 329 330
357 355 354 352 351 348 345 346 345 346 351 354 354 354 353 353 353 352 351 348 345 346 346 346 348 349 350 350 349 349 349 350 351 350 350 351 350 348 346 346 346 345 343 341 339 339 339 338 338 336 334 333 330 326 325 325 325 323 321 320 316 310 309 311 314 315 316 317 317 317 318 320 323 327 328 327 326 326 326 326 327 327 327 326 327
358 356 354 353 350 348 346 346 346 348 352 354 354 354 353 353 352 351 350 346 345 346 347 348 349 350 350 350 350 350 350 351 352 351 351 351 349 348 346 346 346 344 341 339 338 338 338 336 334 334 333 332 328 326 326 325 323 322 321 321 319 316 313 312 313 314 315 316 317 319 323 326 327 330 329 328 327 327 327 327 327 325 324 323 324
358 355 354 351 348 347 346 346 347 350 354 354 353 353 353 352 352 350 347 344 346 348 348 349 350 350 351 351 351 352 352 351 351 350 349 348 347 347 346 345 344 341 338 338 338 337 336 334 334 333 332 330 327 326 327 325 323 323 322 321 321 320 318 316 314 312 312 314 317 320 324 326 328 329 329 328 328 328 327 327 326 324 322 320 321
358 356 353 349 348 348 347 347 348 352 355 354 353 353 353 352 351 350 346 344 348 350 350 351 351 351 352 352 352 352 352 351 350 350 349 347 346 347 346 343 340 338 338 337 337 335 334 333 333 332 329 327 327 327 328 325 324 323 322 322 321 321 320 319 316 311 310 313 316 318 321 325 327 329 328 328 328 328 327 327 325 323 321 319 320
358 354 351 349 347 348 348 348 349 353 355 354 353 353 353 351 350 348 345 345 351 353 351 352 352 351 352 353 353 353 351 350 351 350 348 347 347 347 343 339 339 339 338 336 333 332 332 330 329 328 327 327 327 328 327 325 324 324 323 322 321 321 321 318 312 309 311 315 316 316 319 323 325 327 327 326 326 326 327 325 322 320 319 318 320
353 350 350 349 347 348 348 348 350 354 355 354 353 354 353 351 349 347 345 347 352 354 352 352 353 352 353 354 353 352 351 351 352 350 348 347 346 344 340 339 340 338 334 331 330 329 328 327 327 328 328 327 327 326 326 325 325 323 322 322 321 320 316 311 308 310 314 316 316 316 318 321 322 323 323 323 323 324 324 322 319 318 318 318 321
350 350 350 348 347 348 347 348 351 354 355 355 354 353 353 351 349 348 347 348 353 355 353 352 353 353 353 354 352 352 352 352 351 350 347 344 342 340 340 339 338 335 331 329 328 327 327 326 325 328 329 326 324 324 326 326 325 323 322 320 317 312 308 307 310 313 315 315 315 316 317 319 321 321 320 321 321 321 321 320 318 318 319 320 322
351 351 349 347 347 347 346 349 352 354 355 355 354 354 352 351 350 349 349 350 353 355 354 353 354 354 354 354 352 352 351 351 350 347 343 341 341 341 340 337 334 333 332 329 325 324 326 325 324 326 327 325 325 326 327 327 324 322 319 314 309 307 308 311 314 314 314 316 317 318 318 319 319 320 320 320 321 320 320 320 320 319 320 322 324
351 350 349 348 347 346 347 351 352 354 356 356 355 354 353 351 350 350 350 351 352 355 355 354 354 355 354 353 353 352 351 350 348 343 341 341 341 339 336 334 333 332 330 325 322 323 325 325 325 326 326 325 326 327 328 326 322 317 312 307 306 310 313 314 315 315 317 318 319 319 320 320 320 321 321 322 323 323 323 324 324 322 322 324 325
350 349 350 348 347 348 350 352 354 355 355 356 355 355 353 352 351 351 352 351 352 355 356 354 354 355 354 353 352 351 349 347 344 342 341 341 338 335 334 333 330 326 324 322 322 325 326 324 323 322 320 319 322 325 325 321 315 309 306 307 311 314 315 316 317 318 318 318 319 320 321 322 323 324 325 325 324 325 325 325 325 325 325 326 326
350 351 352 349 349 351 353 354 355 355 355 356 356 355 355 354 352 352 353 353 353 355 356 355 355 354 352 352 350 347 344 343 341 340 340 338 336 334 332 327 322 322 324 325 324 323 320 317 316 314 314 318 321 319 315 311 308 307 310 313 315 316 317 317 317 318 319 319 320 321 323 324 324 325 325 324 323 324 325 324 325 325 324 324 325
353 355 355 353 352 354 354 355 356 355 356 357 356 356 357 356 353 353 354 355 356 356 356 355 353 351 350 349 347 344 343 341 339 337 336 336 334 329 325 323 324 324 324 321 318 315 313 311 310 309 310 314 315 310 307 308 312 314 316 317 317 318 319 318 318 319 320 321 322 323 324 325 325 324 325 323 321 321 323 322 323 323 321 321 322
357 357 357 355 354 355 355 355 356 356 357 356 356 357 357 356 355 354 355 356 356 355 354 353 351 349 348 346 343 342 342 340 338 336 335 333 329 324 323 327 326 321 316 313 311 311 310 308 307 306 307 308 309 309 312 315 317 318 317 317 319 320 321 321 321 321 322 323 323 323 322 322 322 322 323 322 320 320 321 320 320 322 321 319 319
358 357 357 356 354 355 355 356 357 357 357 357 357 357 357 357 356 356 356 356 355 353 352 351 349 347 344 343 342 341 341 339 337 335 331 329 328 325 324 325 321 315 312 311 309 308 308 308 308 308 307 307 311 315 317 318 318 317 317 319 321 322 322 322 322 323 323 324 323 320 318 320 320 320 320 320 320 319 320 319 319 320 321 320 319
357 356 356 355 355 355 355 357 358 358 358 358 357 357 357 357 356 356 355 354 353 352 350 349 347 344 343 343 342 340 338 337 337 334 330 327 326 322 317 316 314 312 311 308 306 307 310 311 311 309 308 311 316 318 317 317 317 317 318 320 322 322 322 322 323 323 323 323 321 319 319 319 319 319 320 320 320 320 320 320 319 319 319 320 319
355 356 356 355 355 355 356 357 358 358 358 357 357 358 357 356 355 354 353 352 351 350 348 346 344 342 342 341 339 338 337 336 335 333 327 321 318 314 311 310 310 310 310 308 308 310 312 313 312 309 310 315 318 317 316 317 317 318 320 322 322 322 322 323 323 323 323 323 321 320 319 319 319 320 320 320 320 320 320 320 320 319 319 319 319
348 350 352 354 355 355 356 358 357 357 358 357 357 357 356 355 354 352 351 350 350 348 346 344 342 341 341 339 338 337 334 330 328 327 322 317 316 315 313 312 311 312 313 313 312 312 312 313 312 310 312 317 318 317 317 317 318 320 322 322 322 323 323 323 323 322 322 321 320 319 319 320 320 320 320 320 320 321 321 321 321 320 319 318 318
345 346 346 350 354 356 356 357 357 356 357 356 355 355 354 353 352 350 350 349 348 346 344 343 343 342 340 338 338 335 329 323 322 321 318 318 318 317 316 316 315 315 315 314 313 313 313 313 312 311 313 316 317 317 318 319 320 321 322 323 323 324 323 322 321 321 320 319 320 320 319 320 320 320 320 320 320 321 321 321 321 320 319 318 318
347 347 345 346 352 356 357 355 354 355 355 354 354 353 352 352 350 348 348 346 344 344 343 342 342 340 339 338 335 330 324 319 317 318 318 319 319 318 317 317 316 315 315 315 315 314 313 312 312 313 314 316 317 318 320 321 322 323 323 323 324 323 322 320 319 320 320 319 320 320 320 320 320 320 320 320 320 321 321 321 320 319 318 317 317
346 347 346 345 347 353 356 354 353 353 353 352 352 352 350 350 348 346 345 344 343 342 340 336 333 332 333 333 329 324 320 317 316 318 320 320 319 319 318 317 317 317 316 316 316 315 313 313 314 315 316 318 319 320 321 322 323 322 323 324 323 322 321 320 319 320 320 320 320 320 320 320 320 319 320 320 320 321 320 320 319 317 317 316 316
Wind_Speed
8 9 6 7 17 23 24 22 20 18 15 12 10 12 16 21 27 29 25 24 25 26 25 26 26 23 22 20 20 21 19 16 14 13 12 11 11 10 9 7 6 5 5 5 4 4 4 4 4 3 2 2 3 4 3 3 3 4 4 3 3 3 4 4 4 3 3 3 1 1 2 3 7 7 7 8 10 11 11 12 14 16 18 19 19
13 11 12 19 25 26 24 22 22 22 20 18 14 14 17 19 23 26 23 21 21 21 22 25 26 25 23 20 20 21 19 17 15 13 12 10 9 9 7 7 7 7 7 5 4 3 3 3 3 2 2 3 3 3 3 2 3 3 3 4 3 3 4 4 4 3 1 1 0 2 3 2 3 5 7 9 12 12 13 13 14 16 18 19 18
8 11 16 24 28 24 22 22 24 24 23 22 17 15 17 18 19 20 20 17 15 17 20 22 23 23 21 19 19 20 19 17 15 13 11 10 9 9 8 9 9 8 8 5 3 2 3 4 3 2 3 3 2 2 2 2 2 3 3 4 5 4 4 4 5 4 2 1 0 1 1 2 0 4 7 10 12 13 14 14 15 17 19 19 18
8 9 12 19 23 20 20 24 26 24 23 22 19 16 16 17 18 17 16 15 15 18 21 23 22 21 19 18 17 18 19 18 15 13 12 11 11 9 9 9 9 9 8 5 3 4 4 5 4 4 4 3 2 2 2 3 4 4 5 5 6 7 6 5 5 5 5 3 1 1 0 1 1 2 6 7 9 12 15 16 17 18 19 20 20
10 10 11 13 15 19 22 24 24 24 24 23 19 16 14 14 17 16 12 13 17 21 22 22 20 18 16 16 17 16 17 17 16 14 13 13 12 10 8 7 7 8 7 5 5 5 5 5 5 4 4 2 2 2 2 4 5 6 7 7 8 7 7 7 7 7 6 5 2 0 1 2 1 2 2 2 5 9 13 15 17 18 19 20 21
10 11 11 10 12 16 18 18 20 22 22 20 18 17 15 14 14 10 8 12 20 24 23 19 16 13 11 13 17 18 18 18 17 16 14 13 11 10 8 6 6 7 6 6 6 7 6 5 5 4 3 2 2 1 3 5 7 8 8 9 8 7 8 9 8 6 5 6 7 5 3 3 2 1 1 1 3 6 10 13 15 17 18 18 20
8 9 9 8 10 12 11 13 16 18 18 17 16 17 16 14 10 7 7 15 23 25 22 17 15 12 11 13 17 19 18 15 14 15 14 12 11 11 10 8 8 8 7 7 7 6 5 4 3 2 2 2 1 3 5 7 7 7 8 8 7 6 7 7 5 5 4 5 6 7 8 8 5 2 1 1 3 4 7 11 14 16 17 18 19
8 8 7 6 9 10 9 9 11 13 15 15 15 16 15 13 8 8 13 18 19 20 18 16 17 16 16 17 18 18 15 12 13 15 14 12 12 12 11 10 9 9 8 7 7 6 4 3 3 3 3 1 2 4 6 7 3 5 6 6 6 4 4 3 4 6 5 5 5 5 7 8 9 7 5 3 1 2 4 6 10 14 16 18 19
9 9 7 6 8 9 9 8 10 10 11 12 12 12 12 11 8 8 12 13 12 12 12 12 14 17 18 16 17 17 13 13 14 13 12 13 13 14 12 10 9 8 7 7 6 5 4 2 4 4 3 3 3 4 6 5 2 7 4 4 6 3 3 3 3 5 5 6 7 6 6 6 7 7 8 7 4 2 3 3 4 6 11 16 19
7 7 6 6 8 9 8 8 9 9 8 8 8 8 7 8 6 6 7 6 5 6 7 7 9 15 18 16 18 18 15 15 15 13 14 14 14 13 11 9 7 7 6 6 6 4 3 4 5 5 3 3 2 3 5 6 4 4 2 1 2 1 2 3 3 4 6 7 9 9 7 6 4 4 6 8 7 4 4 4 4 3 6 10 12
5 5 5 6 7 7 6 7 8 8 8 7 6 6 5 5 5 5 5 4 4 3 5 7 9 13 17 18 20 20 18 18 16 15 15 15 14 12 9 7 6 6 6 5 5 4 6 7 6 4 2 1 1 1 5 7 7 7 6 5 5 3 4 4 4 5 8 9 11 12 9 7 4 2 4 3 5 5 3 3 6 6 6 8 8
5 5 5 6 6 6 6 7 7 7 6 6 6 6 5 5 4 4 4 3 2 1 3 6 7 9 14 17 18 18 17 16 15 15 16 14 13 10 8 7 6 7 7 6 6 7 8 8 6 3 1 1 1 3 6 6 6 7 6 5 5 4 4 5 6 7 8 8 10 12 11 10 7 5 8 7 2 3 3 3 5 6 6 7 7
5 5 5 5 5 6 7 8 7 7 6 7 8 8 8 6 5 4 4 4 4 3 4 5 4 6 11 13 13 13 13 13 14 14 13 11 10 9 8 8 7 9 10 8 9 9 8 7 6 4 2 3 4 4 4 4 4 4 4 4 3 4 4 5 6 8 9 9 9 9 9 11 10 8 8 9 6 3 2 2 3 4 4 5 5
4 4 4 4 5 7 9 9 8 9 9 10 9 9 9 8 5 4 5 6 6 6 6 6 6 7 10 11 12 13 13 13 12 11 9 8 8 7 7 6 6 9 10 8 8 8 7 8 7 5 5 6 5 3 2 2 1 2 3 3 4 4 3 5 7 9 10 10 10 10 10 9 10 9 7 7 6 3 1 2 3 3 5 5 5
3 4 4 4 6 8 9 10 12 14 13 10 9 9 8 7 5 5 7 7 7 7 8 8 9 9 10 10 11 12 11 11 10 8 7 7 6 6 6 6 6 8 8 7 8 7 7 9 8 7 5 5 4 3 2 2 1 3 4 4 4 4 4 6 9 9 10 10 9 10 11 9 9 10 8 7 7 7 7 5 4 3 4 4 3
4 4 4 4 6 8 9 11 15 17 14 11 9 8 7 6 5 6 7 8 8 8 9 10 10 11 11 11 11 10 9 9 8 7 7 7 7 6 6 5 4 6 7 6 7 8 8 9 9 7 5 2 4 4 3 1 1 2 3 4 5 5 7 8 9 8 8 9 9 10 12 10 9 10 10 9 9 10 12 10 8 5 4 3 3
4 4 4 4 6 7 9 13 17 17 14 11 9 8 7 7 7 8 8 8 8 9 9 10 11 11 10 10 10 10 9 9 9 9 8 5 5 5 4 5 6 7 6 6 8 8 9 10 10 7 5 5 6 5 4 3 2 3 5 6 7 6 6 7 9 8 9 9 9 10 12 12 12 11 10 11 11 12 12 13 14 11 5 2 2
4 4 4 5 6 7 9 13 16 16 13 11 10 8 8 8 8 8 8 8 8 8 8 9 9 10 10 10 9 9 9 9 9 7 3 0 2 5 5 6 9 10 8 9 10 10 10 11 11 9 8 8 7 6 5 4 3 4 6 6 7 7 5 7 9 10 10 10 10 10 10 10 11 11 10 11 12 12 12 13 15 16 15 8 1
5 4 4 4 7 10 11 13 15 14 13 11 10 8 9 9 7 7 7 6 6 7 7 7 8 9 10 10 10 10 9 7 6 3 3 6 12 16 16 15 17 17 16 16 16 15 14 13 12 10 8 7 6 6 4 3 3 4 6 7 7 8 7 8 10 10 10 9 9 9 9 10 11 11 10 11 12 12 13 13 14 15 17 15 10
5 6 5 5 9 12 13 15 16 16 15 13 11 9 9 9 7 5 5 5 6 6 6 6 7 8 10 10 10 8 6 5 3 3 8 17 20 20 20 20 19 18 16 15 13 13 12 11 9 8 7 7 5 5 4 3 3 4 7 9 9 8 8 9 11 11 11 10 9 9 9 10 12 12 12 12 12 13 13 13 14 15 16 15 14
6 6 6 6 10 13 15 17 18 17 16 13 11 9 8 8 6 5 5 6 6 6 6 6 7 9 10 9 7 6 5 4 2 5 14 21 19 18 19 17 17 15 13 12 11 10 10 9 9 9 8 7 5 5 4 4 5 6 8 10 11 9 8 8 9 10 11 11 10 9 9 9 11 12 12 11 11 12 14 14 13 14 14 14 13
6 6 5 6 10 14 16 18 18 17 17 15 13 10 8 8 8 6 7 8 7 6 7 7 8 10 9 7 6 5 3 2 4 11 18 20 18 18 18 16 15 14 11 10 9 9 9 9 9 9 8 6 5 5 4 5 6 7 8 10 11 10 9 8 8 8 9 10 9 8 8 9 11 12 12 10 11 12 14 15 14 14 13 12 11
6 5 4 6 11 15 17 17 18 18 17 15 14 13 12 10 9 8 8 8 7 7 8 8 9 10 8 6 5 3 2 5 12 17 19 18 17 17 15 14 14 12 10 9 8 8 7 7 7 7 6 4 3 4 5 5 5 6 8 9 9 10 9 9 8 8 8 9 9 8 7 9 11 12 12 10 10 12 14 15 14 13 13 11 10
6 4 4 9 13 14 14 14 15 17 17 17 16 15 14 12 11 9 9 9 9 9 10 11 11 10 7 6 5 5 9 16 20 19 17 16 16 14 12 12 11 9 8 7 7 6 6 6 7 6 4 3 3 4 4 4 5 6 8 8 8 9 9 8 8 8 8 8 8 7 8 9 10 11 11 10 10 12 14 14 13 13 13 12 11
6 5 6 8 10 10 11 11 13 16 17 17 17 16 14 12 13 13 11 11 11 11 12 13 12 11 9 8 6 8 14 19 18 17 17 15 14 12 11 9 8 7 7 6 6 6 5 5 6 5 3 3 3 2 2 4 5 7 7 7 9 9 8 7 7 8 8 8 8 8 9 10 9 10 11 11 12 13 14 12 12 12 13 14 14
6 7 7 7 8 9 10 10 11 15 17 18 16 15 15 15 16 15 13 13 13 13 13 14 13 12 10 9 7 8 13 17 15 15 15 13 11 10 9 7 6 5 4 4 5 5 4 4 5 4 4 4 3 2 4 5 6 7 6 7 9 9 8 7 6 7 7 6 7 9 10 11 10 10 11 12 13 13 11 10 11 12 14 15 16
7 8 8 8 9 11 14 16 14 9 9 16 18 16 17 18 17 15 14 15 15 14 14 15 13 11 11 9 6 7 13 15 13 12 11 10 9 8 6 5 3 2 2 3 4 4 4 4 4 4 4 3 3 5 5 6 6 6 8 9 10 9 8 7 6 7 7 7 8 10 11 11 11 11 11 13 13 11 10 11 14 16 17 18 18
9 10 10 10 10 10 13 17 16 9 1 7 16 19 18 18 17 17 17 16 15 16 16 14 12 12 12 10 7 10 14 12 10 10 9 8 7 6 4 3 1 1 2 2 2 3 5 5 4 4 4 4 6 7 5 5 5 8 10 11 11 10 9 8 8 8 9 9 10 11 12 11 11 12 13 13 13 13 14 15 15 15 16 17 18
9 10 11 12 11 10 13 18 23 23 15 10 16 21 19 18 19 18 17 16 16 18 16 13 13 13 12 9 9 12 12 10 9 8 7 6 5 4 3 2 1 1 2 2 2 4 6 6 4 2 3 6 9 8 5 4 6 9 12 13 12 9 8 9 9 8 9 10 10 11 12 12 12 13 14 14 14 14 14 13 12 12 12 13 14
10 10 10 12 11 10 15 18 19 23 22 19 21 23 21 21 21 19 17 17 17 17 15 14 14 13 12 11 11 11 9 8 8 6 5 4 3 3 2 1 1 1 3 3 2 3 6 6 3 1 4 10 10 8 6 6 6 8 12 15 15 11 8 8 10 10 10 11 11 12 12 12 13 13 13 13 12 11 10 10 10 10 10 10 11
11 10 8 9 10 10 15 20 20 20 20 22 25 26 24 23 22 19 18 17 16 15 15 15 14 12 12 12 11 9 7 7 6 4 4 3 2 2 0 1 1 1 1 2 2 4 5 4 2 2 7 12 10 6 6 6 7 9 13 17 17 13 9 8 10 11 12 13 13 14 14 14 14 13 12 12 12 12 12 12 12 11 11 10 11
11 10 9 10 12 12 14 20 24 23 21 23 27 27 24 23 22 20 19 17 16 16 16 15 13 13 14 13 10 8 8 7 6 5 4 3 2 1 2 2 0 1 1 2 2 3 2 1 1 5 10 11 7 5 5 7 8 11 15 18 18 16 12 11 11 12 13 14 15 15 15 14 13 12 12 13 13 12 12 12 13 14 14 15 14
12 12 13 13 13 16 19 24 28 27 25 27 30 29 25 24 22 20 20 18 17 16 17 15 14 14 14 11 9 9 9 8 6 5 4 3 3 2 2 1 1 2 4 4 3 3 2 2 4 8 10 8 5 4 4 7 9 12 16 17 17 15 14 14 14 14 14 15 15 15 14 13 14 14 13 11 11 12 12 13 14 16 18 19 19
13 13 13 13 17 21 24 27 27 28 28 29 31 29 26 25 23 21 20 19 16 17 18 16 15 14 12 11 11 11 10 9 7 5 5 4 3 2 2 1 2 5 5 5 5 4 5 5 6 8 8 5 4 3 4 7 10 13 15 14 14 13 12 13 15 16 16 15 14 13 13 14 15 14 11 10 12 14 15 16 17 19 22 22 21
13 13 13 14 14 13 20 28 25 25 28 28 28 28 26 25 23 21 21 18 16 17 18 17 16 14 12 12 12 12 11 9 7 6 5 4 2 1 1 3 5 6 6 7 6 6 7 7 7 7 5 4 3 3 5 8 11 12 11 11 12 12 12 14 16 18 17 15 13 12 12 14 15 13 11 12 15 16 16 18 21 23 25 25 22
12 10 11 11 7 9 9 24 24 23 27 28 27 27 26 25 23 21 21 18 15 17 19 18 16 15 14 13 13 12 11 9 7 6 4 2 0 2 4 6 6 6 7 8 9 8 8 8 6 5 4 5 4 4 7 9 8 8 8 9 11 12 14 16 19 19 16 14 13 12 13 14 15 14 15 17 18 17 18 21 25 26 26 26 20
6 5 7 12 9 7 7 17 19 21 26 28 28 27 25 24 23 21 21 19 15 17 20 18 16 15 14 14 13 12 10 9 7 5 2 2 4 6 6 6 6 7 8 10 10 9 9 8 7 5 5 6 6 7 8 6 5 6 7 9 12 14 17 19 19 18 16 14 14 14 14 15 15 15 16 17 18 19 21 24 27 26 25 24 18
12 12 12 13 13 11 11 16 18 19 23 26 27 26 24 23 22 21 21 19 16 18 20 19 17 16 15 14 12 11 10 9 7 4 3 6 8 8 6 6 7 8 10 9 8 8 7 7 7 6 5 6 8 8 5 3 4 6 8 11 15 17 18 19 18 17 16 16 15 15 14 14 15 16 16 17 19 21 23 25 25 23 22 22 18
15 18 18 15 13 12 14 16 17 18 21 25 25 24 23 22 21 21 21 20 18 18 20 19 17 16 14 13 11 10 9 8 6 5 7 9 8 7 7 8 9 8 7 7 6 7 7 7 7 6 5 6 8 6 2 2 5 8 11 14 17 17 17 17 18 18 18 17 17 17 18 17 17 18 19 20 20 19 20 20 18 16 18 20 18
14 16 18 17 15 16 16 16 17 18 21 23 23 23 22 21 21 20 21 22 20 18 19 19 17 15 13 12 10 9 7 6 6 8 10 8 7 8 9 9 7 5 5 6 6 6 6 6 6 5 5 7 7 4 1 3 7 10 14 15 15 15 16 16 17 18 19 19 20 22 22 20 19 19 18 17 15 14 14 14 14 14 15 17 17
16 16 18 17 17 18 19 17 17 20 21 22 22 22 21 20 20 20 21 22 20 18 18 19 17 14 12 10 8 7 6 7 9 9 9 7 7 8 7 5 5 5 6 7 5 4 4 6 7 7 8 9 8 6 4 7 10 13 14 14 14 14 15 16 17 18 19 21 22 22 21 19 19 19 17 17 18 16 16 17 16 14 14 14 15
17 18 18 18 17 17 16 16 18 21 22 22 23 21 19 20 20 20 21 21 19 18 19 19 16 13 11 8 7 9 11 11 11 10 9 9 7 5 4 5 6 6 5 5 5 6 9 11 11 10 10 9 8 8 9 11 13 14 14 14 15 15 15 16 18 19 20 20 20 20 19 18 19 18 17 18 18 16 15 16 15 15 15 14 13
16 18 20 21 19 18 18 19 21 23 23 23 23 21 19 19 20 20 19 18 18 18 19 17 15 12 10 9 11 14 14 12 12 10 9 7 5 4 6 7 6 5 5 7 9 11 12 12 12 12 10 8 8 10 12 12 13 13 13 14 15 16 15 16 17 17 18 18 18 18 17 16 17 16 15 17 18 15 14 15 14 14 15 15 13
19 22 24 23 21 20 21 22 22 23 24 24 24 21 19 19 19 20 19 18 18 19 18 16 14 12 12 13 14 14 13 12 12 9 7 6 5 6 7 6 4 7 10 12 12 10 11 13 13 12 10 9 10 11 11 12 13 13 14 15 15 14 14 15 15 16 16 17 17 17 16 16 16 16 15 17 17 15 14 15 15 14 15 16 15
19 22 25 25 24 23 22 22 23 24 24 25 25 22 19 19 19 20 20 20 19 18 17 15 14 15 16 16 15 13 12 12 11 8 6 6 6 6 7 6 6 9 10 11 11 11 12 13 13 12 11 10 11 11 11 12 12 14 15 15 13 11 13 14 15 15 16 15 15 16 17 18 19 18 18 18 18 16 15 15 16 14 14 16 16
21 22 24 23 24 25 23 21 22 24 25 25 25 23 21 20 21 21 21 21 19 18 17 16 16 18 18 16 14 14 13 11 9 7 7 7 6 7 8 8 8 8 9 10 11 12 12 12 11 11 10 10 10 10 10 12 14 16 16 13 10 11 13 14 14 14 14 13 15 17 18 19 20 20 20 19 19 18 16 16 16 16 15 16 16
15 21 27 27 24 23 24 22 21 23 25 24 24 24 23 22 23 22 20 19 18 18 18 18 19 19 17 16 15 14 12 10 8 9 9 9 8 8 9 8 8 10 11 11 11 10 10 10 10 10 9 9 9 9 11 14 16 17 15 12 11 13 15 16 15 13 13 14 16 18 19 20 21 21 21 21 20 19 17 15 16 16 16 16 15
8 5 13 22 25 23 22 23 21 21 24 25 24 25 25 24 23 21 19 18 18 19 20 20 19 18 17 17 16 14 13 12 11 12 12 11 10 10 11 11 10 10 11 12 10 8 7 7 8 8 8 7 8 10 13 16 18 17 14 12 14 16 17 17 16 14 15 17 18 20 21 22 23 23 24 24 22 20 18 15 15 16 17 16 15
12 5 3 5 18 25 23 22 23 23 24 26 26 25 26 25 22 19 18 18 19 21 20 18 17 17 17 16 15 15 16 16 15 14 12 10 10 11 12 11 10 8 9 10 9 7 5 6 6 7 6 7 9 12 15 15 15 13 13 15 17 18 17 17 16 15 17 19 20 22 24 25 25 25 25 24 23 21 19 16 15 17 17 17 16
19 15 3 7 6 23 27 23 23 25 25 26 26 25 24 23 20 18 18 19 20 20 17 15 15 17 17 16 17 18 18 16 14 14 12 11 10 8 8 9 9 7 7 7 7 7 7 7 7 6 5 7 11 13 14 12 11 12 14 16 16 16 17 18 18 18 19 21 23 24 25 25 24 24 24 23 22 20 17 16 16 17 18 17 17
18 22 17 3 3 14 26 25 23 25 26 24 25 25 23 20 19 18 19 20 19 17 15 14 15 17 19 19 20 19 16 14 14 13 12 11 9 8 7 6 5 5 5 5 5 7 9 9 7 6 6 8 11 11 10 10 11 14 16 15 13 13 15 18 20 21 22 24 25 25 24 24 23 23 23 21 19 18 17 17 17 18 18 17 17
Wind_Direction
80 87 110 181 208 210 214 217 219 223 225 218 199 185 181 177 183 188 187 187 187 187 189 193 193 191 191 195 199 193 186 184 185 188 193 193 197 205 212 220 228 229 236 244 249 260 266 265 258 268 296 304 318 332 317 317 348 349 336 333 328 329 330 330 331 323 313 318 347 96 146 213 246 247 241 235 235 239 233 226 226 226 228 234 238
87 112 161 196 209 205 203 208 213 217 219 217 207 191 184 178 179 184 184 184 185 188 192 195 196 196 194 192 190 187 185 184 186 193 200 203 208 212 219 240 249 244 240 235 234 249 258 263 267 277 292 298 310 324 316 318 338 334 325 323 324 319 317 326 324 309 294 301 351 77 91 127 246 254 241 234 234 237 237 232 230 231 230 231 236
131 155 176 198 209 201 194 204 211 214 214 213 206 189 186 186 183 182 181 183 188 196 201 203 204 205 204 199 192 192 194 195 196 199 203 210 218 226 242 257 256 247 240 226 226 252 259 265 273 285 291 294 288 284 306 328 330 317 305 302 303 311 316 326 320 297 266 262 187 70 81 117 57 273 253 244 240 241 241 235 230 232 235 234 234
155 171 184 201 210 205 200 206 209 210 209 207 198 186 184 188 192 189 178 177 189 202 207 208 209 208 209 208 200 198 199 202 204 203 211 223 229 239 251 255 248 233 228 221 238 269 268 265 270 284 290 283 245 246 277 305 313 305 294 290 292 309 327 335 327 302 278 283 48 87 123 98 65 254 246 252 249 241 240 235 231 232 235 235 233
162 181 197 199 203 208 211 212 210 209 210 208 199 188 185 189 194 189 168 172 197 210 212 209 206 201 198 200 198 193 191 195 198 197 208 221 229 240 237 230 222 211 215 230 254 270 270 266 270 277 279 265 229 245 288 303 306 296 285 284 283 297 319 325 328 319 290 274 264 157 49 44 324 247 245 259 237 231 234 233 229 229 230 230 231
172 183 197 195 193 206 214 214 212 213 214 212 206 200 199 197 191 174 154 190 215 222 221 215 209 199 179 179 183 180 179 183 187 189 199 212 222 232 223 203 201 203 216 240 255 267 268 262 266 272 260 228 212 265 299 304 308 297 280 278 277 280 299 312 331 340 315 281 264 254 261 261 271 321 4 298 244 229 231 231 231 232 231 230 230
182 190 200 193 185 195 205 211 212 213 216 215 210 206 206 201 191 183 200 218 226 231 232 227 224 216 192 188 187 179 176 173 176 186 196 206 213 220 222 214 209 207 219 240 252 261 259 251 251 238 193 178 217 318 317 316 312 288 263 260 266 273 283 298 359 25 357 317 285 264 260 258 266 280 224 297 313 260 239 234 234 236 236 236 235
180 191 203 195 184 186 189 203 212 213 215 215 210 209 212 212 214 235 243 243 242 247 252 245 237 227 211 206 199 186 178 168 174 190 197 203 205 211 218 216 213 214 226 243 251 254 255 247 210 172 143 105 20 353 345 339 295 219 221 237 248 285 299 298 43 46 22 358 337 301 282 272 268 261 242 241 289 292 270 247 239 240 239 238 240
180 184 193 193 185 187 184 193 211 216 215 213 209 210 217 221 222 235 244 252 254 259 270 261 239 228 221 211 194 185 187 181 180 190 200 208 212 213 215 211 213 219 228 239 245 253 255 219 155 133 96 73 58 38 34 25 197 195 213 243 236 274 339 342 8 24 23 10 357 341 320 296 279 270 257 243 227 246 280 268 258 254 247 245 245
184 179 179 182 182 188 182 180 200 209 204 195 190 191 196 202 193 182 195 211 225 240 259 257 232 219 215 202 183 179 185 187 186 187 198 213 217 216 215 213 214 210 211 227 241 247 213 163 134 115 89 89 71 34 64 65 85 147 141 142 183 259 336 336 341 2 7 5 4 355 336 319 305 288 270 246 227 235 258 283 298 285 262 265 266
179 167 161 166 170 181 173 167 182 187 184 173 165 173 174 168 156 149 160 175 199 224 233 231 222 206 197 186 180 181 182 184 189 190 198 211 216 218 218 213 212 204 203 220 231 213 172 152 137 127 106 82 314 67 94 74 67 94 102 88 74 43 14 7 5 3 2 6 14 15 4 350 345 348 337 280 219 220 240 283 297 290 271 275 300
159 152 150 151 151 163 161 158 167 166 165 161 159 167 161 156 160 153 145 146 160 187 197 208 212 196 186 181 178 181 183 183 187 192 198 206 212 221 221 212 211 204 201 204 197 181 164 153 145 137 78 318 234 129 101 72 67 92 95 74 51 29 17 8 356 354 2 9 13 22 31 32 34 48 46 49 92 207 236 258 289 303 284 276 302
151 145 151 156 145 152 157 155 163 166 163 161 159 156 149 156 169 155 134 129 127 125 141 165 179 170 174 175 170 173 182 186 189 195 198 203 211 220 218 213 211 202 196 195 190 182 170 161 149 134 102 90 121 122 102 75 66 76 72 53 17 355 354 343 339 340 349 356 354 1 21 33 37 46 56 57 66 112 177 241 274 284 263 273 295
148 142 155 165 147 150 158 154 155 162 163 162 155 147 147 152 156 143 130 131 130 124 126 129 132 148 162 167 164 167 176 184 188 190 191 199 210 217 217 212 204 198 193 186 184 179 172 172 162 143 119 104 109 107 106 121 34 350 355 353 336 343 341 324 330 329 328 333 338 343 351 7 21 25 37 43 42 61 159 235 261 283 269 274 285
153 154 159 163 151 154 159 147 145 154 157 157 147 140 144 143 140 138 131 133 135 126 124 125 123 133 145 155 160 161 167 176 179 180 186 195 197 198 199 193 184 188 189 181 182 180 174 177 174 160 136 105 114 135 131 164 271 328 345 345 341 350 344 330 329 326 325 329 332 338 339 344 3 10 15 20 13 2 348 319 287 290 289 292 295
158 163 159 156 160 167 165 146 142 148 151 152 147 142 143 137 128 130 129 130 129 124 126 128 126 128 133 142 149 151 155 164 166 164 166 168 171 180 193 205 200 189 187 186 192 194 187 189 192 194 199 154 131 136 111 106 355 11 11 7 10 0 350 349 343 334 336 341 337 336 337 337 348 358 3 7 6 4 6 2 348 322 284 284 313
162 171 158 154 170 179 165 145 142 146 149 152 152 148 149 145 135 128 126 124 123 125 127 127 127 128 131 137 143 146 148 149 149 146 147 161 191 212 232 234 210 195 200 202 203 210 210 207 202 192 188 164 137 125 98 95 94 61 40 21 15 1 345 354 354 341 339 339 333 330 331 333 341 354 7 14 16 14 16 22 24 23 16 289 275
156 161 151 153 170 175 158 146 147 149 150 152 151 149 151 150 142 134 132 130 126 127 126 125 125 126 131 137 138 142 143 143 144 139 129 214 194 169 162 170 166 162 166 162 159 167 178 180 168 145 136 134 127 124 116 108 99 64 48 38 31 22 6 0 355 344 341 339 338 339 343 348 354 1 11 16 19 19 19 27 35 39 43 45 39
151 149 153 154 159 162 151 144 148 149 148 149 148 149 150 152 151 143 140 138 134 133 127 123 125 126 131 134 134 136 138 137 134 113 88 111 125 131 131 135 140 138 134 132 130 132 140 145 142 132 125 124 119 120 116 96 82 60 49 46 36 25 18 14 9 6 7 2 357 357 360 4 4 1 3 8 14 20 22 28 32 36 43 43 42
158 153 159 158 156 158 151 146 149 147 147 148 148 148 151 155 158 152 148 146 141 140 129 121 128 135 137 136 137 136 130 125 107 82 123 128 124 123 122 125 133 135 135 135 129 123 125 127 127 123 121 124 120 111 102 83 71 52 39 32 17 3 0 10 19 24 24 17 8 3 360 1 1 357 359 3 9 14 17 24 27 29 37 36 33
160 159 161 157 151 147 144 147 149 145 144 146 146 146 152 158 159 158 153 147 146 147 139 135 141 146 145 142 140 131 124 134 118 114 131 130 122 119 120 123 132 139 143 142 132 121 119 120 120 117 117 122 120 109 100 76 58 46 34 26 14 356 339 350 12 21 21 17 10 3 357 353 352 352 356 0 2 4 6 12 15 16 23 25 22
159 163 162 150 143 137 135 141 144 143 143 144 146 151 160 165 168 170 160 150 153 158 153 152 153 154 153 148 138 127 128 145 133 132 131 127 121 123 126 129 133 137 139 135 128 120 118 121 117 112 113 113 109 106 87 56 55 54 40 30 22 8 344 332 344 358 8 12 7 1 356 351 348 345 345 349 352 353 353 356 0 1 7 12 10
159 163 152 133 135 135 134 137 142 145 145 145 151 158 162 168 173 174 171 165 164 165 162 159 159 159 158 152 138 123 137 141 137 138 133 125 125 129 131 133 131 130 128 121 116 109 107 113 113 108 107 99 96 100 75 55 62 54 39 33 27 19 3 337 323 332 347 357 1 1 355 351 347 340 336 335 338 342 341 342 347 351 355 356 355
164 153 127 125 128 131 134 135 137 143 148 150 152 153 155 164 171 170 172 171 168 170 169 166 166 165 163 162 147 114 125 135 137 137 133 128 131 133 134 134 128 124 120 106 94 85 86 101 112 111 102 90 103 104 77 66 64 47 39 35 22 11 2 341 321 319 326 339 354 356 346 344 342 334 330 327 326 328 330 332 335 340 343 342 340
159 135 121 123 123 125 131 130 129 136 145 149 150 152 156 166 168 165 167 168 168 173 175 175 176 175 176 173 152 122 127 134 136 134 133 133 135 134 132 129 123 117 109 95 88 87 92 108 117 116 103 91 103 107 89 84 66 48 39 26 9 356 347 338 329 325 323 330 343 343 336 335 333 326 323 322 320 316 315 321 327 328 328 325 321
138 126 121 121 117 110 101 98 114 132 143 146 147 152 157 163 167 165 167 168 168 173 178 180 180 179 180 172 152 134 135 136 137 136 136 138 137 136 130 122 119 117 111 103 94 91 105 124 124 119 104 92 109 132 112 88 64 48 34 12 1 353 343 339 340 340 337 333 335 336 331 326 321 318 317 317 320 315 309 315 319 315 314 311 307
131 126 119 112 101 82 65 59 60 73 122 144 148 155 158 160 165 167 167 167 168 173 176 177 179 181 178 170 161 154 147 142 142 141 141 141 138 134 128 119 118 123 127 118 91 86 110 123 122 112 93 94 135 141 113 87 63 45 29 14 7 0 353 353 354 353 354 349 342 340 338 331 322 316 312 311 314 313 307 310 313 307 303 299 296
135 127 121 116 109 101 97 100 104 100 91 154 153 159 163 163 166 166 167 168 169 172 173 175 182 186 181 173 165 158 151 148 149 147 143 142 136 130 123 124 139 153 158 151 93 109 131 125 110 89 82 120 151 143 118 88 64 42 29 22 18 15 12 9 3 359 357 351 344 340 341 340 331 321 315 313 315 317 316 318 319 315 309 303 298
126 118 125 134 137 141 139 137 142 150 164 176 163 161 165 167 166 165 167 170 169 171 174 179 185 187 184 177 162 155 153 153 155 151 145 141 135 131 128 139 166 177 190 190 145 144 151 142 126 87 108 146 148 136 113 86 60 42 33 27 18 13 12 6 0 356 351 348 346 343 343 344 338 329 325 323 320 318 321 329 335 334 332 326 313
128 134 148 152 151 150 145 144 152 158 162 167 164 162 166 167 166 167 170 170 170 174 179 184 187 188 185 176 166 161 161 164 165 159 153 151 145 142 141 168 207 210 209 207 191 178 171 164 162 159 152 152 144 127 111 96 71 47 33 22 11 2 354 354 357 356 350 347 345 342 341 340 337 334 332 328 322 316 318 329 335 338 340 337 327
152 153 161 159 151 158 157 152 159 166 165 164 162 163 167 168 167 171 173 171 176 183 185 188 193 191 183 176 175 180 184 180 177 176 175 179 176 165 23 329 288 250 215 207 199 186 183 191 232 206 168 158 144 119 101 82 65 46 27 16 10 5 353 346 352 354 350 346 340 335 333 331 332 334 330 326 322 316 314 319 323 327 331 330 328
163 157 169 171 165 178 173 156 159 168 169 165 162 162 166 168 170 175 176 177 184 188 190 195 196 189 182 181 185 194 199 193 188 193 201 208 209 230 326 338 352 61 114 125 128 162 189 259 249 186 172 158 132 104 89 62 49 38 22 14 14 14 13 8 2 357 352 345 338 333 331 332 337 337 327 321 319 316 317 322 324 326 326 323 320
169 172 180 180 183 191 176 159 161 168 169 167 164 163 167 170 173 177 178 182 190 192 195 196 191 185 183 185 191 197 201 202 201 207 215 224 244 281 333 356 60 94 112 104 74 65 69 83 152 168 165 146 112 101 85 52 39 29 17 11 11 16 22 23 15 5 355 346 341 339 338 342 346 341 327 320 323 324 325 328 328 329 328 324 319
179 185 188 185 196 195 169 158 165 166 165 168 167 166 170 171 173 178 180 186 192 194 195 192 186 185 185 187 194 197 200 204 209 220 232 250 279 308 354 45 102 109 97 62 45 77 105 114 134 149 148 126 102 104 73 42 27 17 8 6 8 11 14 14 10 4 355 347 345 344 344 346 347 342 332 327 331 331 329 329 330 330 329 326 322
188 197 198 193 213 210 160 154 165 165 162 165 166 166 168 170 174 179 182 189 195 194 192 189 188 191 191 191 196 198 199 205 212 226 247 272 298 346 67 111 116 100 65 48 64 105 119 118 121 126 121 95 94 89 40 19 12 6 2 2 3 3 2 1 357 355 351 345 343 343 344 343 342 337 331 329 331 328 324 326 328 327 324 322 322
192 201 197 183 236 283 164 155 162 161 159 162 163 164 166 169 175 180 183 189 196 193 189 188 192 197 198 199 201 201 202 208 216 224 243 275 188 131 130 127 110 77 64 81 96 102 102 101 99 94 81 71 67 35 8 1 2 3 357 354 355 355 356 352 348 347 347 345 343 343 341 338 335 330 326 326 326 322 318 320 321 321 319 317 319
144 146 179 176 197 253 190 160 157 155 157 160 162 163 165 169 175 181 185 191 195 192 189 190 195 200 201 202 202 204 206 209 214 221 215 145 137 134 128 112 89 81 90 98 98 92 85 75 65 59 59 54 31 6 358 351 354 359 352 351 354 353 350 346 344 347 348 347 346 344 340 335 330 326 322 320 320 317 315 315 315 316 316 314 317
125 144 175 186 187 192 178 164 156 152 156 159 162 164 166 170 176 182 186 193 198 195 191 193 197 199 201 204 206 210 212 207 206 207 166 139 132 124 111 97 97 104 100 90 81 80 71 55 50 49 38 24 7 357 351 335 344 355 356 356 353 349 347 347 348 350 351 350 349 348 345 337 325 321 319 316 314 312 309 309 311 314 315 314 316
159 168 178 184 179 173 170 164 156 153 156 159 163 166 168 172 179 184 189 197 202 199 194 194 196 198 202 207 209 214 216 210 200 170 144 136 127 115 110 108 109 105 87 67 61 71 67 53 47 39 19 10 3 355 333 316 347 358 357 355 351 349 351 353 353 353 353 355 355 353 351 345 334 329 325 320 316 312 309 311 315 315 312 314 319
176 177 178 178 173 169 168 164 158 157 159 160 164 167 171 177 182 186 193 202 205 202 197 195 194 196 201 205 209 216 219 207 180 151 138 133 123 121 122 117 106 88 67 62 72 80 69 46 38 34 30 25 18 17 23 358 1 359 354 353 355 359 360 359 357 355 353 354 355 355 357 356 351 348 345 344 348 347 342 342 339 325 314 318 325
175 173 172 173 173 173 170 165 162 161 162 164 166 168 172 180 185 191 199 205 208 205 197 193 192 192 196 202 205 204 189 165 155 147 139 134 129 127 122 107 91 86 78 72 69 64 56 55 55 50 44 39 37 43 39 9 358 355 356 1 9 12 7 1 358 354 349 349 352 356 3 8 6 6 10 13 14 14 11 8 3 351 341 338 336
171 170 170 171 173 175 170 164 165 166 167 169 170 171 176 182 188 196 202 206 208 203 191 187 187 185 188 192 183 169 158 147 146 147 142 135 131 121 103 97 97 95 81 62 60 72 77 75 66 51 43 43 41 30 14 3 1 5 13 19 18 14 7 359 352 349 349 352 356 1 10 16 15 15 15 12 9 9 10 10 8 4 1 358 352
172 174 176 174 171 172 171 168 168 169 170 172 173 175 179 184 191 199 204 203 199 191 182 178 178 177 178 178 167 159 154 150 151 152 147 139 126 104 106 107 96 87 90 88 87 89 81 69 57 47 41 37 29 18 12 14 20 25 26 23 16 10 5 358 354 353 356 2 8 11 15 17 14 12 7 2 3 5 5 3 2 359 357 359 359
177 177 177 173 169 169 168 167 168 170 171 175 178 178 179 185 192 197 195 188 180 175 172 171 170 169 168 164 162 161 162 164 163 159 151 145 130 121 129 130 105 100 104 96 88 82 71 59 51 45 38 30 27 29 32 35 34 28 21 16 14 12 9 7 9 9 10 14 18 18 17 14 10 9 3 358 360 4 4 2 1 356 351 355 359
169 170 171 170 166 164 162 163 168 171 173 178 181 181 179 180 185 186 181 174 170 168 168 168 168 166 163 161 162 165 167 167 166 163 155 150 142 137 141 141 122 110 102 91 82 76 67 58 47 36 32 35 40 45 44 36 27 18 14 14 17 18 16 16 19 21 22 24 22 19 16 13 9 6 1 357 357 0 1 360 2 0 351 349 354
162 162 166 167 163 158 157 160 165 169 174 179 182 183 180 175 174 175 173 170 169 169 169 170 169 165 163 164 166 166 165 166 168 168 157 144 137 132 130 129 123 109 93 83 85 81 69 56 43 34 35 42 48 46 36 23 15 12 12 15 21 22 18 17 21 24 25 22 16 12 9 5 1 358 355 351 348 349 351 352 357 360 354 348 348
155 160 163 162 158 156 157 157 161 169 173 177 181 182 179 173 168 168 170 171 171 171 171 169 168 166 168 172 171 167 166 168 168 162 146 127 117 113 110 111 115 108 96 89 88 86 74 55 40 35 40 49 49 35 19 11 8 9 11 16 18 16 14 16 20 21 18 12 7 5 1 356 352 349 346 343 339 337 339 343 347 352 351 345 341
75 122 160 161 156 154 155 153 156 165 170 171 173 173 171 169 168 169 173 174 172 172 171 169 170 173 176 178 176 169 160 154 150 147 135 117 107 102 96 99 105 103 98 97 97 94 80 51 36 38 46 49 38 21 10 4 4 7 12 14 12 13 16 20 20 16 12 9 4 359 356 353 350 346 342 339 335 331 330 333 339 344 344 342 338
109 87 335 198 158 148 145 146 150 157 163 163 163 165 165 165 168 173 176 174 171 170 171 175 180 183 181 179 176 168 158 149 143 140 130 118 113 108 101 105 115 109 99 101 102 96 75 44 35 42 43 30 19 13 8 6 9 14 18 16 16 19 23 25 22 14 9 6 360 354 351 349 347 345 340 336 333 331 328 330 337 341 340 339 340
133 133 93 313 175 144 139 140 145 150 155 156 156 160 165 166 170 175 174 169 168 170 173 181 189 187 183 180 172 163 158 152 146 142 137 133 132 129 120 121 128 128 119 111 100 79 53 35 38 52 44 19 12 12 12 19 29 33 28 25 26 28 28 26 21 14 8 2 355 350 347 347 346 343 339 335 335 337 336 337 341 343 341 340 341
134 132 121 79 256 147 137 137 142 147 150 153 156 160 164 167 170 174 173 170 172 173 171 173 176 175 173 170 164 157 156 156 153 152 150 148 152 159 155 147 145 144 140 127 98 62 40 36 51 65 47 22 18 21 27 39 43 37 32 31 33 33 29 24 18 13 6 359 353 349 348 348 346 342 341 343 345 346 347 346 344 343 342 341 341